Weather History for KCRE - July, 2013

Change the Weather History Date:

Friday, July 19, 2013

  Actual Average Record
Temperature  
Mean Temperature 80 °F 81 °F  
Max Temperature 86 °F 88 °F 93 °F (1996)
Min Temperature 74 °F 73 °F 67 °F (2009)
Degree Days  
Heating Degree Days 0 0  
Month to date heating degree days 0 0  
Since 1 June heating degree days 0 0  
Since 1 July heating degree days 0 0  
Cooling Degree Days 15 16  
Month to date cooling degree days 298 296  
Year to date cooling degree days 865 865  
Since 1 June cooling degree days 685 653  
Growing Degree Days 30 (Base 50)    
Moisture  
Dew Point 74 °F    
Average Humidity 82    
Maximum Humidity 94    
Minimum Humidity 70    
Precipitation  
Precipitation 0.00 in 0.21 in 0.55 in (2003)
Month to date precipitation 5.37 3.58  
Year to date precipitation 35.26 25.62  
Sea Level Pressure  
Sea Level Pressure 30.10 in    
Wind  
Wind Speed 11 mph (SSW)    
Max Wind Speed 23 mph    
Max Gust Speed 30 mph    
Visibility 10 miles    
Events      
T = Trace of Precipitation, MM = Missing Value Source: NWS Daily Summary

Daily Weather History Graph

Daily Weather History Graph

Search for Another Location

Airport or City:

Trip Planner

Search our weather history database for the weather conditions in past years. The results will help you decide how hot, cold, wet, or windy it might be!

Date:

Astronomy

Jul. 19, 2013 Rise Set
Actual Time 6:17 AM EDT 8:24 PM EDT
Civil Twilight 5:49 AM EDT 8:52 PM EDT
Nautical Twilight 5:15 AM EDT 9:26 PM EDT
Astronomical Twilight 4:38 AM EDT 10:03 PM EDT
Moon 5:25 PM EDT (7/19) 2:56 AM EDT (7/19)
Length of Visible Light 15h 02m
Length of Day
14h 06m
Waxing Gibbous, 86% of the Moon is Illuminated
Jul 19
Waxing Gibbous
Jul 22
Full
Jul 29
Last Quarter
Aug 6
New
Aug 14
First Quarter

Hourly Weather History & Observations

Time (EDT) Temp. Heat Index Dew Point Humidity Pressure Visibility Wind Dir Wind Speed Gust Speed Precip Events Conditions
12:53 AM 81.0 °F 85.2 °F 72.0 °F 74% 30.13 in 10.0 mi SW 9.2 mph - N/A   Clear
1:53 AM 77.0 °F - 73.9 °F 90% 30.12 in 10.0 mi Calm Calm - N/A   Clear
2:53 AM 75.0 °F - 73.0 °F 94% 30.12 in 10.0 mi Calm Calm - N/A   Clear
3:53 AM 75.0 °F - 73.0 °F 94% 30.11 in 10.0 mi Calm Calm - N/A   Clear
4:53 AM 75.0 °F - 72.0 °F 90% 30.11 in 10.0 mi SW 3.5 mph - N/A   Clear
5:53 AM 75.0 °F - 72.0 °F 90% 30.12 in 10.0 mi Calm Calm - N/A   Partly Cloudy
6:53 AM 75.9 °F - 73.0 °F 91% 30.12 in 10.0 mi Calm Calm - N/A   Clear
7:53 AM 78.1 °F - 73.9 °F 87% 30.13 in 10.0 mi Calm Calm - N/A   Clear
8:53 AM 81.0 °F 86.2 °F 73.9 °F 79% 30.14 in 10.0 mi WSW 5.8 mph - N/A   Scattered Clouds
9:53 AM 82.9 °F 89.4 °F 73.9 °F 74% 30.14 in 10.0 mi SSW 12.7 mph - N/A   Scattered Clouds
10:53 AM 84.9 °F 93.3 °F 75.0 °F 72% 30.15 in 10.0 mi SW 10.4 mph - N/A   Scattered Clouds
11:53 AM 84.9 °F 92.1 °F 73.9 °F 69% 30.14 in 10.0 mi South 13.8 mph - N/A   Clear
12:53 PM 84.9 °F 92.1 °F 73.9 °F 69% 30.14 in 10.0 mi SSW 15.0 mph - N/A   Scattered Clouds
1:53 PM 84.9 °F 94.1 °F 75.9 °F 74% 30.12 in 10.0 mi SSW 13.8 mph - N/A   Scattered Clouds
2:53 PM 84.0 °F 91.2 °F 73.9 °F 72% 30.10 in 10.0 mi SSW 12.7 mph - N/A   Partly Cloudy
3:53 PM 84.9 °F 93.3 °F 75.0 °F 72% 30.10 in 10.0 mi SSW 17.3 mph - N/A   Clear
4:53 PM 84.9 °F 93.3 °F 75.0 °F 72% 30.07 in 10.0 mi South 16.1 mph - N/A   Partly Cloudy
5:53 PM 84.0 °F 90.2 °F 73.0 °F 69% 30.06 in 10.0 mi SSW 15.0 mph - N/A   Clear
6:53 PM 82.9 °F 88.8 °F 73.0 °F 72% 30.04 in 10.0 mi SSW 15.0 mph - N/A   Partly Cloudy
7:53 PM 82.0 °F 87.4 °F 73.0 °F 74% 30.04 in 10.0 mi SSW 13.8 mph - N/A   Clear
8:53 PM 81.0 °F 86.2 °F 73.9 °F 79% 30.06 in 10.0 mi SSW 15.0 mph - N/A   Partly Cloudy
9:23 PM 80.6 °F 85.4 °F 73.4 °F 79% 30.06 in 10.0 mi SSW 12.7 mph 23.0 mph N/A   Mostly Cloudy
9:53 PM 81.0 °F 85.8 °F 73.0 °F 77% 30.07 in 10.0 mi SSW 18.4 mph 23.0 mph N/A   Scattered Clouds
10:53 PM 81.0 °F 86.2 °F 73.9 °F 79% 30.08 in 10.0 mi SSW 15.0 mph 21.9 mph N/A   Partly Cloudy
11:27 PM 80.6 °F 85.4 °F 73.4 °F 79% 30.08 in 10.0 mi SW 18.4 mph 25.3 mph N/A   Mostly Cloudy
11:53 PM 80.1 °F 84.2 °F 73.0 °F 79% 30.09 in 10.0 mi SW 19.6 mph 23.0 mph N/A   Scattered Clouds